Time,TemperatureF,DewpointF,PressureIn,WindDirection,WindDirectionDegrees,WindSpeedMPH,WindSpeedGustMPH,Humidity,HourlyPrecipIn,Conditions,Clouds,dailyrainin,SoftwareType,DateUTC
2013-10-10 00:01:00,48.9,17.3,29.18,SW,226,0.0,0.0,28,0.00,,---,0.00,VWS V14.01,2013-10-10 04:01:00,
2013-10-10 00:02:00,48.9,17.3,29.18,SW,226,0.0,0.0,28,0.00,,---,0.00,VWS V14.01,2013-10-10 04:02:00,
2013-10-10 00:03:00,48.9,17.3,29.18,SW,226,0.0,0.0,28,0.00,,---,0.00,VWS V14.01,2013-10-10 04:03:00,
2013-10-10 00:08:00,48.9,17.3,29.18,East,98,0.0,0.0,28,0.00,,---,0.00,VWS V14.01,2013-10-10 04:08:00,
2013-10-10 00:13:00,48.9,16.4,29.18,ESE,115,0.0,0.0,27,0.00,,---,0.00,VWS V14.01,2013-10-10 04:13:00,
2013-10-10 00:18:00,48.9,16.4,29.15,ESE,115,0.0,0.0,27,0.00,,---,0.00,VWS V14.01,2013-10-10 04:18:00,
2013-10-10 00:23:00,48.9,16.4,29.15,ESE,115,0.0,0.0,27,0.00,,---,0.00,VWS V14.01,2013-10-10 04:23:00,
2013-10-10 00:28:00,48.7,16.3,29.15,ESE,115,0.0,0.0,27,0.00,,---,0.00,VWS V14.01,2013-10-10 04:28:00,
2013-10-10 00:33:00,48.7,16.3,29.15,SE,127,0.0,0.0,27,0.00,,---,0.00,VWS V14.01,2013-10-10 04:33:00,
2013-10-10 00:38:00,48.7,16.3,29.15,SE,127,0.0,0.0,27,0.00,,---,0.00,VWS V14.01,2013-10-10 04:38:00,
2013-10-10 00:43:00,48.7,16.3,29.15,SE,127,0.0,0.0,27,0.00,,---,0.00,VWS V14.01,2013-10-10 04:43:00,
2013-10-10 00:48:00,48.6,17.0,29.15,WSW,241,0.0,0.0,28,0.00,,---,0.00,VWS V14.01,2013-10-10 04:48:00,
2013-10-10 00:53:00,48.6,17.0,29.15,WSW,239,0.0,0.0,28,0.00,,---,0.00,VWS V14.01,2013-10-10 04:53:00,
2013-10-10 00:58:00,48.4,16.8,29.15,SW,229,0.0,0.0,28,0.00,,---,0.00,VWS V14.01,2013-10-10 04:58:00,
2013-10-10 01:03:00,48.4,16.8,29.15,SW,229,0.0,0.0,28,0.00,,---,0.00,VWS V14.01,2013-10-10 05:03:00,
2013-10-10 01:08:00,48.2,16.6,29.15,SW,229,0.0,0.0,28,0.00,,---,0.00,VWS V14.01,2013-10-10 05:08:00,
2013-10-10 01:13:00,48.2,16.6,29.15,SW,229,0.0,0.0,28,0.00,,---,0.00,VWS V14.01,2013-10-10 05:13:00,
2013-10-10 01:18:00,48.0,16.5,29.15,SW,229,0.0,0.0,28,0.00,,---,0.00,VWS V14.01,2013-10-10 05:18:00,
2013-10-10 01:23:00,48.0,16.5,29.15,SW,229,0.0,0.0,28,0.00,,---,0.00,VWS V14.01,2013-10-10 05:23:00,
2013-10-10 01:28:00,48.0,17.3,29.15,SW,229,0.0,0.0,29,0.00,,---,0.00,VWS V14.01,2013-10-10 05:28:00,
2013-10-10 01:33:00,48.0,17.3,29.15,SW,229,0.0,0.0,29,0.00,,---,0.00,VWS V14.01,2013-10-10 05:33:00,
2013-10-10 01:38:00,48.2,16.6,29.15,SW,229,0.0,0.0,28,0.00,,---,0.00,VWS V14.01,2013-10-10 05:38:00,
2013-10-10 01:43:00,48.2,16.6,29.15,SW,229,0.0,0.0,28,0.00,,---,0.00,VWS V14.01,2013-10-10 05:43:00,
2013-10-10 01:48:00,48.2,16.6,29.15,SW,229,0.0,0.0,28,0.00,,---,0.00,VWS V14.01,2013-10-10 05:48:00,
2013-10-10 01:53:00,48.0,17.3,29.15,SW,229,0.0,0.0,29,0.00,,---,0.00,VWS V14.01,2013-10-10 05:53:00,
2013-10-10 01:58:00,48.0,17.3,29.15,SW,229,0.0,0.0,29,0.00,,---,0.00,VWS V14.01,2013-10-10 05:58:00,
2013-10-10 02:04:00,48.0,17.3,29.15,SW,229,0.0,0.0,29,0.00,,---,0.00,VWS V14.01,2013-10-10 06:04:00,
2013-10-10 02:09:00,48.0,17.3,29.15,SW,229,0.0,0.0,29,0.00,,---,0.00,VWS V14.01,2013-10-10 06:09:00,
2013-10-10 02:14:00,48.0,18.1,29.15,SW,229,0.0,0.0,30,0.00,,---,0.00,VWS V14.01,2013-10-10 06:14:00,
2013-10-10 02:19:00,48.0,18.1,29.12,SW,229,0.0,0.0,30,0.00,,---,0.00,VWS V14.01,2013-10-10 06:19:00,
2013-10-10 02:24:00,48.0,18.1,29.12,SW,229,0.0,0.0,30,0.00,,---,0.00,VWS V14.01,2013-10-10 06:24:00,
2013-10-10 02:29:00,48.0,18.1,29.12,SW,220,0.0,0.0,30,0.00,,---,0.00,VWS V14.01,2013-10-10 06:29:00,
2013-10-10 02:34:00,48.0,18.8,29.15,SW,220,0.0,0.0,31,0.00,,---,0.00,VWS V14.01,2013-10-10 06:34:00,
2013-10-10 02:39:00,47.8,18.7,29.15,SW,220,0.0,0.0,31,0.00,,---,0.00,VWS V14.01,2013-10-10 06:39:00,
2013-10-10 02:44:00,47.8,18.7,29.15,SW,220,0.0,0.0,31,0.00,,---,0.00,VWS V14.01,2013-10-10 06:44:00,
2013-10-10 02:49:00,47.8,18.7,29.12,SW,220,0.0,0.0,31,0.00,,---,0.00,VWS V14.01,2013-10-10 06:49:00,
2013-10-10 02:54:00,47.8,18.7,29.12,SW,220,0.0,0.0,31,0.00,,---,0.00,VWS V14.01,2013-10-10 06:54:00,
2013-10-10 02:59:00,47.8,19.4,29.12,SW,220,0.0,0.0,32,0.00,,---,0.00,VWS V14.01,2013-10-10 06:59:00,
2013-10-10 03:04:00,47.8,19.4,29.12,SW,220,0.0,0.0,32,0.00,,---,0.00,VWS V14.01,2013-10-10 07:04:00,
2013-10-10 03:09:00,47.8,19.4,29.12,SW,220,0.0,0.0,32,0.00,,---,0.00,VWS V14.01,2013-10-10 07:09:00,
2013-10-10 03:14:00,47.8,19.4,29.12,SW,220,0.0,0.0,32,0.00,,---,0.00,VWS V14.01,2013-10-10 07:14:00,
2013-10-10 03:19:00,47.8,19.4,29.12,SW,220,0.0,0.0,32,0.00,,---,0.00,VWS V14.01,2013-10-10 07:19:00,
2013-10-10 03:24:00,47.8,20.1,29.12,SW,220,0.0,0.0,33,0.00,,---,0.00,VWS V14.01,2013-10-10 07:24:00,
2013-10-10 03:29:00,47.8,20.1,29.12,SW,220,0.0,0.0,33,0.00,,---,0.00,VWS V14.01,2013-10-10 07:29:00,
2013-10-10 03:34:00,47.8,20.1,29.12,SW,220,0.0,0.0,33,0.00,,---,0.00,VWS V14.01,2013-10-10 07:34:00,
2013-10-10 03:39:00,47.8,20.1,29.12,SW,220,0.0,0.0,33,0.00,,---,0.00,VWS V14.01,2013-10-10 07:39:00,
2013-10-10 03:44:00,47.8,20.9,29.12,SW,220,0.0,0.0,34,0.00,,---,0.00,VWS V14.01,2013-10-10 07:44:00,
2013-10-10 03:49:00,47.8,20.9,29.12,SW,220,0.0,0.0,34,0.00,,---,0.00,VWS V14.01,2013-10-10 07:49:00,
2013-10-10 03:54:00,47.8,21.5,29.12,SW,220,0.0,0.0,35,0.00,,---,0.00,VWS V14.01,2013-10-10 07:54:00,
2013-10-10 03:59:00,47.8,21.5,29.12,SW,220,0.0,0.0,35,0.00,,---,0.00,VWS V14.01,2013-10-10 07:59:00,
2013-10-10 04:04:00,47.8,21.5,29.12,SW,220,0.0,0.0,35,0.00,,---,0.00,VWS V14.01,2013-10-10 08:04:00,
2013-10-10 04:09:00,47.8,21.5,29.12,SW,220,0.0,0.0,35,0.00,,---,0.00,VWS V14.01,2013-10-10 08:09:00,
2013-10-10 04:14:00,47.8,22.2,29.12,SW,220,0.0,0.0,36,0.00,,---,0.00,VWS V14.01,2013-10-10 08:14:00,
2013-10-10 04:19:00,47.8,22.2,29.09,SW,220,0.0,0.0,36,0.00,,---,0.00,VWS V14.01,2013-10-10 08:19:00,
2013-10-10 04:24:00,47.8,22.9,29.09,SW,220,0.0,0.0,37,0.00,,---,0.00,VWS V14.01,2013-10-10 08:24:00,
2013-10-10 04:29:00,48.0,23.0,29.09,SW,220,0.0,0.0,37,0.00,,---,0.00,VWS V14.01,2013-10-10 08:29:00,
2013-10-10 04:34:00,48.0,23.0,29.09,SW,220,0.0,0.0,37,0.00,,---,0.00,VWS V14.01,2013-10-10 08:34:00,
2013-10-10 04:39:00,48.0,23.0,29.09,SW,220,0.0,0.0,37,0.00,,---,0.00,VWS V14.01,2013-10-10 08:39:00,
2013-10-10 04:44:00,48.0,23.0,29.09,SW,220,0.0,0.0,37,0.00,,---,0.00,VWS V14.01,2013-10-10 08:44:00,
2013-10-10 04:49:00,48.2,23.2,29.09,SW,220,0.0,0.0,37,0.00,,---,0.00,VWS V14.01,2013-10-10 08:49:00,
2013-10-10 04:54:00,48.2,23.2,29.09,SW,220,0.0,0.0,37,0.00,,---,0.00,VWS V14.01,2013-10-10 08:54:00,
2013-10-10 04:59:00,48.2,23.2,29.09,SW,220,0.0,0.0,37,0.00,,---,0.00,VWS V14.01,2013-10-10 08:59:00,
2013-10-10 05:04:00,48.2,23.2,29.09,SW,220,0.0,0.0,37,0.00,,---,0.00,VWS V14.01,2013-10-10 09:04:00,
2013-10-10 05:09:00,48.2,23.2,29.09,SW,220,0.0,0.0,37,0.00,,---,0.00,VWS V14.01,2013-10-10 09:09:00,
2013-10-10 05:14:00,48.2,23.2,29.09,SW,220,0.0,0.0,37,0.00,,---,0.00,VWS V14.01,2013-10-10 09:14:00,
2013-10-10 05:19:00,48.2,23.2,29.12,SW,220,0.0,0.0,37,0.00,,---,0.00,VWS V14.01,2013-10-10 09:19:00,
2013-10-10 05:24:00,48.4,23.3,29.12,SW,220,0.0,0.0,37,0.00,,---,0.00,VWS V14.01,2013-10-10 09:24:00,
2013-10-10 05:29:00,48.4,23.3,29.12,SW,220,0.0,0.0,37,0.00,,---,0.00,VWS V14.01,2013-10-10 09:29:00,
2013-10-10 05:34:00,48.4,23.3,29.12,SW,220,0.0,0.0,37,0.00,,---,0.00,VWS V14.01,2013-10-10 09:34:00,
2013-10-10 05:39:00,48.6,23.5,29.12,SW,220,0.0,0.0,37,0.00,,---,0.00,VWS V14.01,2013-10-10 09:39:00,
2013-10-10 05:44:00,48.6,23.5,29.12,SW,220,0.0,0.0,37,0.00,,---,0.00,VWS V14.01,2013-10-10 09:44:00,
2013-10-10 05:49:00,48.6,23.5,29.09,SW,220,0.0,0.0,37,0.00,,---,0.00,VWS V14.01,2013-10-10 09:49:00,
2013-10-10 05:55:00,48.6,24.1,29.09,SW,220,0.0,0.0,38,0.00,,---,0.00,VWS V14.01,2013-10-10 09:55:00,
2013-10-10 06:00:00,48.6,24.1,29.09,SW,220,0.0,0.0,38,0.00,,---,0.00,VWS V14.01,2013-10-10 10:00:00,
2013-10-10 06:05:00,48.7,24.3,29.09,SW,220,0.0,0.0,38,0.00,,---,0.00,VWS V14.01,2013-10-10 10:05:00,
2013-10-10 06:10:00,48.7,24.3,29.09,SW,220,0.0,0.0,38,0.00,,---,0.00,VWS V14.01,2013-10-10 10:10:00,
2013-10-10 06:15:00,48.7,24.3,29.09,SW,220,0.0,0.0,38,0.00,,---,0.00,VWS V14.01,2013-10-10 10:15:00,
2013-10-10 06:20:00,48.7,24.3,29.09,SW,220,0.0,0.0,38,0.00,,---,0.00,VWS V14.01,2013-10-10 10:20:00,
2013-10-10 06:25:00,48.7,24.3,29.09,SW,220,0.0,0.0,38,0.00,,---,0.00,VWS V14.01,2013-10-10 10:25:00,
2013-10-10 06:30:00,48.7,24.3,29.09,SW,220,0.0,0.0,38,0.00,,---,0.00,VWS V14.01,2013-10-10 10:30:00,
2013-10-10 06:35:00,48.7,24.3,29.09,SW,220,0.0,0.0,38,0.00,,---,0.00,VWS V14.01,2013-10-10 10:35:00,
2013-10-10 06:40:00,48.9,24.5,29.09,SW,220,0.0,0.0,38,0.00,,---,0.00,VWS V14.01,2013-10-10 10:40:00,
2013-10-10 06:45:00,48.9,24.5,29.09,SW,220,0.0,0.0,38,0.00,,---,0.00,VWS V14.01,2013-10-10 10:45:00,
2013-10-10 06:50:00,48.9,24.5,29.12,SW,220,0.0,0.0,38,0.00,,---,0.00,VWS V14.01,2013-10-10 10:50:00,
2013-10-10 06:55:00,48.9,24.5,29.12,SW,220,0.0,0.0,38,0.00,,---,0.00,VWS V14.01,2013-10-10 10:55:00,
2013-10-10 07:00:00,49.1,24.6,29.12,SW,220,0.0,0.0,38,0.00,,---,0.00,VWS V14.01,2013-10-10 11:00:00,
2013-10-10 07:05:00,49.1,24.6,29.12,SW,220,0.0,0.0,38,0.00,,---,0.00,VWS V14.01,2013-10-10 11:05:00,
2013-10-10 07:10:00,49.1,24.6,29.12,SW,220,0.0,0.0,38,0.00,,---,0.00,VWS V14.01,2013-10-10 11:10:00,
2013-10-10 07:15:00,49.1,25.2,29.12,SW,220,0.0,0.0,39,0.00,,---,0.00,VWS V14.01,2013-10-10 11:15:00,
2013-10-10 07:20:00,49.1,25.2,29.12,SW,220,0.0,0.0,39,0.00,,---,0.00,VWS V14.01,2013-10-10 11:20:00,
2013-10-10 07:25:00,49.1,25.2,29.12,SW,220,0.0,0.0,39,0.00,,---,0.00,VWS V14.01,2013-10-10 11:25:00,
2013-10-10 07:30:00,49.1,25.2,29.12,SW,220,0.0,0.0,39,0.00,,---,0.00,VWS V14.01,2013-10-10 11:30:00,
2013-10-10 07:35:00,49.1,25.2,29.09,SW,220,0.0,0.0,39,0.00,,---,0.00,VWS V14.01,2013-10-10 11:35:00,
2013-10-10 07:40:00,49.3,25.4,29.09,SW,220,0.0,0.0,39,0.00,,---,0.00,VWS V14.01,2013-10-10 11:40:00,
2013-10-10 07:45:00,49.5,25.5,29.09,SW,220,0.0,0.0,39,0.00,,---,0.00,VWS V14.01,2013-10-10 11:45:00,
2013-10-10 07:50:00,49.5,25.5,29.09,SW,220,0.0,0.0,39,0.00,,---,0.00,VWS V14.01,2013-10-10 11:50:00,
2013-10-10 07:55:00,49.5,25.5,29.09,SW,220,0.0,0.0,39,0.00,,---,0.00,VWS V14.01,2013-10-10 11:55:00,
2013-10-10 08:00:00,49.5,25.5,29.09,SW,220,0.0,0.0,39,0.00,,---,0.00,VWS V14.01,2013-10-10 12:00:00,
2013-10-10 08:05:00,49.6,25.7,29.12,SW,220,0.0,0.0,39,0.00,,---,0.00,VWS V14.01,2013-10-10 12:05:00,
2013-10-10 08:10:00,49.6,25.7,29.12,SW,220,0.0,0.0,39,0.00,,---,0.00,VWS V14.01,2013-10-10 12:10:00,
2013-10-10 08:15:00,50.0,26.0,29.12,SW,220,0.0,0.0,39,0.00,,---,0.00,VWS V14.01,2013-10-10 12:15:00,
2013-10-10 08:20:00,50.2,26.2,29.12,SW,220,0.0,0.0,39,0.00,,---,0.00,VWS V14.01,2013-10-10 12:20:00,
2013-10-10 08:25:00,50.4,26.4,29.12,SW,220,0.0,0.0,39,0.00,,---,0.00,VWS V14.01,2013-10-10 12:25:00,
2013-10-10 08:30:00,50.4,27.0,29.12,SW,220,0.0,0.0,40,0.00,,---,0.00,VWS V14.01,2013-10-10 12:30:00,
2013-10-10 08:35:00,50.5,27.1,29.12,SW,220,0.0,0.0,40,0.00,,---,0.00,VWS V14.01,2013-10-10 12:35:00,
2013-10-10 08:40:00,50.7,27.3,29.12,SW,220,0.0,0.0,40,0.00,,---,0.00,VWS V14.01,2013-10-10 12:40:00,
2013-10-10 08:45:00,50.9,27.5,29.12,SW,220,0.0,0.0,40,0.00,,---,0.00,VWS V14.01,2013-10-10 12:45:00,
2013-10-10 08:50:00,51.1,28.2,29.12,SW,220,0.0,0.0,41,0.00,,---,0.00,VWS V14.01,2013-10-10 12:50:00,
2013-10-10 08:55:00,51.3,28.4,29.12,SW,220,0.0,0.0,41,0.00,,---,0.00,VWS V14.01,2013-10-10 12:55:00,
2013-10-10 09:00:00,51.6,28.7,29.12,SW,220,0.0,0.0,41,0.00,,---,0.00,VWS V14.01,2013-10-10 13:00:00,
2013-10-10 09:05:00,52.2,29.8,29.12,SW,220,0.0,0.0,42,0.00,,---,0.00,VWS V14.01,2013-10-10 13:05:00,
2013-10-10 09:10:00,52.5,30.1,29.12,SW,225,0.0,0.0,42,0.00,,---,0.00,VWS V14.01,2013-10-10 13:10:00,
2013-10-10 09:15:00,52.7,30.3,29.12,SW,225,0.0,0.0,42,0.00,,---,0.00,VWS V14.01,2013-10-10 13:15:00,
2013-10-10 09:20:00,52.9,30.4,29.12,SW,225,0.0,0.0,42,0.00,,---,0.00,VWS V14.01,2013-10-10 13:20:00,
2013-10-10 09:25:00,52.9,30.4,29.12,SW,223,0.0,0.0,42,0.00,,---,0.00,VWS V14.01,2013-10-10 13:25:00,
2013-10-10 09:30:00,53.1,31.2,29.12,SW,223,0.0,0.0,43,0.00,,---,0.00,VWS V14.01,2013-10-10 13:30:00,
2013-10-10 09:35:00,53.2,31.3,29.12,SW,223,0.0,0.0,43,0.00,,---,0.00,VWS V14.01,2013-10-10 13:35:00,
2013-10-10 09:41:00,53.4,31.5,29.12,SW,224,0.0,0.0,43,0.00,,---,0.00,VWS V14.01,2013-10-10 13:41:00,
2013-10-10 09:46:00,53.8,31.8,29.12,SW,224,0.0,0.0,43,0.00,,---,0.00,VWS V14.01,2013-10-10 13:46:00,
2013-10-10 09:51:00,54.0,32.6,29.12,SW,224,0.0,0.0,44,0.00,,---,0.00,VWS V14.01,2013-10-10 13:51:00,
2013-10-10 09:56:00,54.3,32.9,29.12,SW,224,0.0,0.0,44,0.00,,---,0.00,VWS V14.01,2013-10-10 13:56:00,
2013-10-10 10:01:00,54.5,33.0,29.12,SW,224,0.0,0.0,44,0.00,,---,0.00,VWS V14.01,2013-10-10 14:01:00,
2013-10-10 10:06:00,54.7,33.2,29.12,SSW,211,0.0,0.0,44,0.00,,---,0.00,VWS V14.01,2013-10-10 14:06:00,
2013-10-10 10:11:00,54.9,33.4,29.12,SSW,211,0.0,0.0,44,0.00,,---,0.00,VWS V14.01,2013-10-10 14:11:00,
2013-10-10 10:16:00,54.9,33.4,29.12,SSW,211,0.0,0.0,44,0.00,,---,0.00,VWS V14.01,2013-10-10 14:16:00,
2013-10-10 10:21:00,54.9,33.4,29.12,SSW,211,0.0,0.0,44,0.00,,---,0.00,VWS V14.01,2013-10-10 14:21:00,
2013-10-10 10:26:00,55.0,33.5,29.12,SSW,211,0.0,0.0,44,0.00,,---,0.00,VWS V14.01,2013-10-10 14:26:00,
2013-10-10 10:31:00,54.9,33.4,29.12,SSW,211,0.0,0.0,44,0.00,,---,0.00,VWS V14.01,2013-10-10 14:31:00,
2013-10-10 10:36:00,54.9,33.4,29.12,SSW,211,0.0,0.0,44,0.00,,---,0.00,VWS V14.01,2013-10-10 14:36:00,
2013-10-10 10:41:00,55.0,33.5,29.12,SSW,211,0.0,0.0,44,0.00,,---,0.00,VWS V14.01,2013-10-10 14:41:00,
2013-10-10 10:46:00,55.0,33.5,29.12,SSW,211,0.0,0.0,44,0.00,,---,0.00,VWS V14.01,2013-10-10 14:46:00,
2013-10-10 10:51:00,55.0,33.5,29.12,SSW,212,0.0,0.0,44,0.00,,---,0.00,VWS V14.01,2013-10-10 14:51:00,
2013-10-10 10:56:00,55.2,33.7,29.12,SSW,212,0.0,0.0,44,0.00,,---,0.00,VWS V14.01,2013-10-10 14:56:00,
2013-10-10 11:01:00,55.8,34.8,29.09,SSW,211,0.0,0.0,45,0.00,,---,0.00,VWS V14.01,2013-10-10 15:01:00,
2013-10-10 11:06:00,55.9,34.9,29.09,SSW,211,0.0,0.0,45,0.00,,---,0.00,VWS V14.01,2013-10-10 15:06:00,
2013-10-10 11:11:00,56.1,35.1,29.09,SSW,211,0.0,0.0,45,0.00,,---,0.00,VWS V14.01,2013-10-10 15:11:00,
2013-10-10 11:16:00,55.9,34.4,29.12,SSW,211,0.0,0.0,44,0.00,,---,0.00,VWS V14.01,2013-10-10 15:16:00,
2013-10-10 11:21:00,56.1,34.5,29.12,SSW,211,0.0,0.0,44,0.00,,---,0.00,VWS V14.01,2013-10-10 15:21:00,
2013-10-10 11:26:00,56.1,34.5,29.12,SSW,211,0.0,0.0,44,0.00,,---,0.00,VWS V14.01,2013-10-10 15:26:00,
2013-10-10 11:31:00,56.3,34.7,29.12,SSW,211,0.0,0.0,44,0.00,,---,0.00,VWS V14.01,2013-10-10 15:31:00,
2013-10-10 11:36:00,56.7,35.0,29.12,SSW,211,0.0,0.0,44,0.00,,---,0.00,VWS V14.01,2013-10-10 15:36:00,
2013-10-10 11:41:00,56.8,35.2,29.12,SW,225,3.6,3.6,44,0.00,,---,0.00,VWS V14.01,2013-10-10 15:41:00,
2013-10-10 11:46:00,56.8,34.0,29.09,SSW,208,0.0,2.2,42,0.00,,---,0.00,VWS V14.01,2013-10-10 15:46:00,
2013-10-10 11:51:00,57.0,33.6,29.09,WSW,240,0.0,0.0,41,0.00,,---,0.00,VWS V14.01,2013-10-10 15:51:00,
2013-10-10 11:56:00,57.2,33.7,29.09,WSW,240,0.0,0.0,41,0.00,,---,0.00,VWS V14.01,2013-10-10 15:56:00,
2013-10-10 12:01:00,57.7,34.2,29.09,WSW,239,0.0,0.0,41,0.00,,---,0.00,VWS V14.01,2013-10-10 16:01:00,
2013-10-10 12:06:00,58.1,34.5,29.09,SW,235,0.0,0.0,41,0.00,,---,0.00,VWS V14.01,2013-10-10 16:06:00,
2013-10-10 12:11:00,58.5,34.2,29.09,NW,307,0.0,0.0,40,0.00,,---,0.00,VWS V14.01,2013-10-10 16:11:00,
2013-10-10 12:16:00,58.6,33.8,29.09,SW,225,0.0,0.0,39,0.00,,---,0.00,VWS V14.01,2013-10-10 16:16:00,
2013-10-10 12:21:00,58.8,33.9,29.09,SW,227,0.0,0.0,39,0.00,,---,0.00,VWS V14.01,2013-10-10 16:21:00,
2013-10-10 12:26:00,59.2,33.6,29.09,SW,224,0.0,0.0,38,0.00,,---,0.00,VWS V14.01,2013-10-10 16:26:00,
2013-10-10 12:31:00,59.7,34.1,29.09,South,175,0.0,0.0,38,0.00,,---,0.00,VWS V14.01,2013-10-10 16:31:00,
2013-10-10 12:36:00,60.1,33.8,29.09,East,88,0.0,0.0,37,0.00,,---,0.00,VWS V14.01,2013-10-10 16:36:00,
2013-10-10 12:41:00,60.4,34.1,29.09,SSW,208,0.0,0.0,37,0.00,,---,0.00,VWS V14.01,2013-10-10 16:41:00,
2013-10-10 12:46:00,60.8,33.7,29.09,SSW,209,3.1,4.0,36,0.00,,---,0.00,VWS V14.01,2013-10-10 16:46:00,
2013-10-10 12:51:00,61.0,33.2,29.09,SSW,208,3.1,3.6,35,0.00,,---,0.00,VWS V14.01,2013-10-10 16:51:00,
2013-10-10 12:56:00,61.3,33.5,29.09,SSE,149,0.0,0.0,35,0.00,,---,0.00,VWS V14.01,2013-10-10 16:56:00,
2013-10-10 13:01:00,61.9,34.0,29.06,SSW,196,0.0,0.0,35,0.00,,---,0.00,VWS V14.01,2013-10-10 17:01:00,
2013-10-10 13:06:00,61.9,33.2,29.06,SW,217,0.0,0.0,34,0.00,,---,0.00,VWS V14.01,2013-10-10 17:06:00,
2013-10-10 13:11:00,61.9,32.5,29.06,SSW,211,0.0,0.0,33,0.00,,---,0.00,VWS V14.01,2013-10-10 17:11:00,
2013-10-10 13:16:00,61.9,31.7,29.06,SSW,211,0.0,0.0,32,0.00,,---,0.00,VWS V14.01,2013-10-10 17:16:00,
2013-10-10 13:21:00,61.9,30.9,29.06,SSW,211,0.0,0.0,31,0.00,,---,0.00,VWS V14.01,2013-10-10 17:21:00,
2013-10-10 13:26:00,62.1,31.1,29.06,East,80,4.0,4.0,31,0.00,,---,0.00,VWS V14.01,2013-10-10 17:26:00,
2013-10-10 13:31:00,62.2,31.2,29.06,East,95,0.0,0.0,31,0.00,,---,0.00,VWS V14.01,2013-10-10 17:31:00,
2013-10-10 13:36:00,62.6,30.8,29.06,WSW,245,3.6,3.6,30,0.00,,---,0.00,VWS V14.01,2013-10-10 17:36:00,
2013-10-10 13:41:00,63.0,30.2,29.06,WSW,237,0.0,0.0,29,0.00,,---,0.00,VWS V14.01,2013-10-10 17:41:00,
2013-10-10 13:46:00,63.1,30.4,29.06,ESE,123,2.7,2.7,29,0.00,,---,0.00,VWS V14.01,2013-10-10 17:46:00,
2013-10-10 13:51:00,63.1,29.5,29.06,East,83,0.0,0.0,28,0.00,,---,0.00,VWS V14.01,2013-10-10 17:51:00,
2013-10-10 13:56:00,63.7,29.1,29.06,ESE,120,0.0,0.0,27,0.00,,---,0.00,VWS V14.01,2013-10-10 17:56:00,
2013-10-10 14:01:00,63.9,29.3,29.06,SE,129,0.0,0.0,27,0.00,,---,0.00,VWS V14.01,2013-10-10 18:01:00,
2013-10-10 14:07:00,64.2,29.6,29.06,SE,129,0.0,0.0,27,0.00,,---,0.00,VWS V14.01,2013-10-10 18:07:00,
2013-10-10 14:12:00,64.2,28.6,29.06,SE,133,0.0,0.0,26,0.00,,---,0.00,VWS V14.01,2013-10-10 18:12:00,
2013-10-10 14:17:00,64.0,28.5,29.06,NE,53,4.0,4.0,26,0.00,,---,0.00,VWS V14.01,2013-10-10 18:17:00,
2013-10-10 14:22:00,64.2,27.7,29.06,ESE,111,0.0,0.0,25,0.00,,---,0.00,VWS V14.01,2013-10-10 18:22:00,
2013-10-10 14:27:00,64.2,27.7,29.06,East,88,0.0,0.0,25,0.00,,---,0.00,VWS V14.01,2013-10-10 18:27:00,
2013-10-10 14:32:00,64.0,26.5,29.03,NE,55,3.6,5.8,24,0.00,,---,0.00,VWS V14.01,2013-10-10 18:32:00,
2013-10-10 14:37:00,63.9,26.4,29.03,North,357,2.7,3.6,24,0.00,,---,0.00,VWS V14.01,2013-10-10 18:37:00,
2013-10-10 14:42:00,63.9,26.4,29.03,East,87,3.6,4.9,24,0.00,,---,0.00,VWS V14.01,2013-10-10 18:42:00,
2013-10-10 14:47:00,63.7,26.2,29.03,East,91,2.7,2.7,24,0.00,,---,0.00,VWS V14.01,2013-10-10 18:47:00,
2013-10-10 14:52:00,63.9,26.4,29.03,NE,52,3.6,3.6,24,0.00,,---,0.00,VWS V14.01,2013-10-10 18:52:00,
2013-10-10 14:57:00,64.4,25.8,29.03,WSW,241,0.0,0.0,23,0.00,,---,0.00,VWS V14.01,2013-10-10 18:57:00,
2013-10-10 15:02:00,64.6,26.0,29.03,East,85,0.0,0.0,23,0.00,,---,0.00,VWS V14.01,2013-10-10 19:02:00,
2013-10-10 15:07:00,64.8,26.1,29.03,WSW,240,0.0,3.1,23,0.00,,---,0.00,VWS V14.01,2013-10-10 19:07:00,
2013-10-10 15:12:00,64.9,26.3,29.03,SSW,198,0.0,0.0,23,0.00,,---,0.00,VWS V14.01,2013-10-10 19:12:00,
2013-10-10 15:17:00,65.1,26.4,29.03,SE,138,0.0,0.0,23,0.00,,---,0.00,VWS V14.01,2013-10-10 19:17:00,
2013-10-10 15:22:00,65.1,26.4,29.03,SW,231,5.4,5.4,23,0.00,,---,0.00,VWS V14.01,2013-10-10 19:22:00,
2013-10-10 15:27:00,65.1,26.4,29.03,SSE,153,4.0,4.0,23,0.00,,---,0.00,VWS V14.01,2013-10-10 19:27:00,
2013-10-10 15:32:00,65.1,26.4,29.03,ENE,65,4.0,4.0,23,0.00,,---,0.00,VWS V14.01,2013-10-10 19:32:00,
2013-10-10 15:37:00,65.3,23.2,29.03,SE,134,2.7,2.7,20,0.00,,---,0.00,VWS V14.01,2013-10-10 19:37:00,
2013-10-10 15:42:00,65.3,20.7,29.03,ESE,117,2.2,5.4,18,0.00,,---,0.00,VWS V14.01,2013-10-10 19:42:00,
2013-10-10 15:47:00,65.5,23.4,29.03,NNE,26,3.1,3.6,20,0.00,,---,0.00,VWS V14.01,2013-10-10 19:47:00,
2013-10-10 15:52:00,65.3,20.7,29.03,NE,42,3.6,4.0,18,0.00,,---,0.00,VWS V14.01,2013-10-10 19:52:00,
2013-10-10 15:57:00,65.1,20.6,29.03,South,175,2.2,2.7,18,0.00,,---,0.00,VWS V14.01,2013-10-10 19:57:00,
2013-10-10 16:02:00,65.1,20.6,29.03,ESE,109,4.0,6.3,18,0.00,,---,0.00,VWS V14.01,2013-10-10 20:02:00,
2013-10-10 16:07:00,65.1,20.6,29.03,SE,136,2.7,3.1,18,0.00,,---,0.00,VWS V14.01,2013-10-10 20:07:00,
2013-10-10 16:12:00,65.7,21.0,29.03,ESE,118,4.9,5.8,18,0.00,,---,0.00,VWS V14.01,2013-10-10 20:12:00,
2013-10-10 16:17:00,66.0,21.3,29.03,East,98,0.0,2.2,18,0.00,,---,0.00,VWS V14.01,2013-10-10 20:17:00,
2013-10-10 16:22:00,66.7,20.6,29.03,East,94,3.1,4.0,17,0.00,,---,0.00,VWS V14.01,2013-10-10 20:22:00,
2013-10-10 16:27:00,66.9,20.7,29.03,East,79,8.3,8.3,17,0.00,,---,0.00,VWS V14.01,2013-10-10 20:27:00,
2013-10-10 16:31:00,67.1,17.9,29.03,SE,146,4.0,4.0,15,0.00,,---,0.00,VWS V14.01,2013-10-10 20:31:00,
2013-10-10 16:36:00,67.3,18.1,29.03,ESE,110,5.4,5.4,15,0.00,,---,0.00,VWS V14.01,2013-10-10 20:36:00,
2013-10-10 16:41:00,67.3,18.1,29.03,SE,129,2.7,2.7,15,0.00,,---,0.00,VWS V14.01,2013-10-10 20:41:00,
2013-10-10 16:46:00,67.1,17.9,29.03,South,170,2.7,3.6,15,0.00,,---,0.00,VWS V14.01,2013-10-10 20:46:00,
2013-10-10 16:51:00,66.7,17.6,29.03,ENE,73,5.4,5.4,15,0.00,,---,0.00,VWS V14.01,2013-10-10 20:51:00,
2013-10-10 16:56:00,66.4,17.4,29.03,SE,130,3.1,3.1,15,0.00,,---,0.00,VWS V14.01,2013-10-10 20:56:00,
2013-10-10 17:01:00,65.8,16.9,29.03,South,172,0.0,0.0,15,0.00,,---,0.00,VWS V14.01,2013-10-10 21:01:00,
2013-10-10 17:06:00,65.5,20.9,29.03,SE,128,3.1,4.0,18,0.00,,---,0.00,VWS V14.01,2013-10-10 21:06:00,
2013-10-10 17:11:00,64.8,20.3,29.03,South,181,0.0,0.0,18,0.00,,---,0.00,VWS V14.01,2013-10-10 21:11:00,
2013-10-10 17:16:00,64.4,20.0,29.03,ENE,60,2.2,4.9,18,0.00,,---,0.00,VWS V14.01,2013-10-10 21:16:00,
2013-10-10 17:21:00,63.9,19.6,29.03,South,172,0.0,0.0,18,0.00,,---,0.00,VWS V14.01,2013-10-10 21:21:00,
2013-10-10 17:26:00,63.5,19.3,29.03,South,173,0.0,0.0,18,0.00,,---,0.00,VWS V14.01,2013-10-10 21:26:00,
2013-10-10 17:31:00,63.3,19.1,29.03,SSE,149,2.7,3.1,18,0.00,,---,0.00,VWS V14.01,2013-10-10 21:31:00,
2013-10-10 17:36:00,63.0,18.8,29.03,SSE,149,0.0,0.0,18,0.00,,---,0.00,VWS V14.01,2013-10-10 21:36:00,
2013-10-10 17:41:00,63.0,22.5,29.03,ESE,108,0.0,2.2,21,0.00,,---,0.00,VWS V14.01,2013-10-10 21:41:00,
2013-10-10 17:46:00,62.8,22.3,29.03,SE,125,0.0,0.0,21,0.00,,---,0.00,VWS V14.01,2013-10-10 21:46:00,
2013-10-10 17:51:00,62.8,22.3,29.03,ESE,120,0.0,0.0,21,0.00,,---,0.00,VWS V14.01,2013-10-10 21:51:00,
2013-10-10 17:56:00,62.6,22.1,29.03,SE,125,0.0,0.0,21,0.00,,---,0.00,VWS V14.01,2013-10-10 21:56:00,
2013-10-10 18:01:00,62.4,22.0,29.03,South,185,0.0,0.0,21,0.00,,---,0.00,VWS V14.01,2013-10-10 22:01:00,
2013-10-10 18:06:00,62.4,25.2,29.03,SSE,167,3.6,4.0,24,0.00,,---,0.00,VWS V14.01,2013-10-10 22:06:00,
2013-10-10 18:11:00,62.2,25.0,29.03,SSE,147,3.1,3.6,24,0.00,,---,0.00,VWS V14.01,2013-10-10 22:11:00,
2013-10-10 18:16:00,62.2,25.0,29.03,ESE,117,0.0,2.7,24,0.00,,---,0.00,VWS V14.01,2013-10-10 22:16:00,
2013-10-10 18:21:00,62.2,25.0,29.03,East,95,2.2,2.2,24,0.00,,---,0.00,VWS V14.01,2013-10-10 22:21:00,
2013-10-10 18:26:00,62.1,24.9,29.03,East,95,0.0,0.0,24,0.00,,---,0.00,VWS V14.01,2013-10-10 22:26:00,
2013-10-10 18:31:00,61.9,24.7,29.03,ESE,108,0.0,0.0,24,0.00,,---,0.00,VWS V14.01,2013-10-10 22:31:00,
2013-10-10 18:36:00,61.7,24.6,29.03,SE,124,4.9,4.9,24,0.00,,---,0.00,VWS V14.01,2013-10-10 22:36:00,
2013-10-10 18:41:00,61.5,24.4,29.03,ESE,118,3.1,3.1,24,0.00,,---,0.00,VWS V14.01,2013-10-10 22:41:00,
2013-10-10 18:46:00,61.3,24.3,29.03,SW,236,0.0,0.0,24,0.00,,---,0.00,VWS V14.01,2013-10-10 22:46:00,
2013-10-10 18:51:00,61.2,24.1,29.03,South,187,0.0,2.2,24,0.00,,---,0.00,VWS V14.01,2013-10-10 22:51:00,
2013-10-10 18:56:00,61.0,24.0,29.03,East,85,0.0,0.0,24,0.00,,---,0.00,VWS V14.01,2013-10-10 22:56:00,
2013-10-10 19:01:00,61.0,24.0,29.03,East,89,0.0,0.0,24,0.00,,---,0.00,VWS V14.01,2013-10-10 23:01:00,
2013-10-10 19:07:00,60.6,24.6,29.03,East,81,0.0,0.0,25,0.00,,---,0.00,VWS V14.01,2013-10-10 23:07:00,
2013-10-10 19:12:00,60.6,24.6,29.03,East,89,2.7,2.7,25,0.00,,---,0.00,VWS V14.01,2013-10-10 23:12:00,
2013-10-10 19:17:00,60.6,24.6,29.03,SSE,160,0.0,0.0,25,0.00,,---,0.00,VWS V14.01,2013-10-10 23:17:00,
2013-10-10 19:22:00,60.6,24.6,29.03,East,87,2.7,3.1,25,0.00,,---,0.00,VWS V14.01,2013-10-10 23:22:00,
2013-10-10 19:27:00,60.6,24.6,29.03,East,87,0.0,0.0,25,0.00,,---,0.00,VWS V14.01,2013-10-10 23:27:00,
2013-10-10 19:32:00,60.6,24.6,29.03,East,87,0.0,0.0,25,0.00,,---,0.00,VWS V14.01,2013-10-10 23:32:00,
2013-10-10 19:37:00,60.4,25.4,29.03,SSW,202,0.0,0.0,26,0.00,,---,0.00,VWS V14.01,2013-10-10 23:37:00,
2013-10-10 19:42:00,60.4,25.4,29.03,SSW,202,0.0,0.0,26,0.00,,---,0.00,VWS V14.01,2013-10-10 23:42:00,
2013-10-10 19:47:00,60.4,25.4,29.03,SSW,202,0.0,0.0,26,0.00,,---,0.00,VWS V14.01,2013-10-10 23:47:00,
2013-10-10 19:52:00,60.4,25.4,29.03,SSW,202,0.0,0.0,26,0.00,,---,0.00,VWS V14.01,2013-10-10 23:52:00,
2013-10-10 19:57:00,60.4,25.4,29.03,SSW,199,0.0,0.0,26,0.00,,---,0.00,VWS V14.01,2013-10-10 23:57:00,
2013-10-10 20:02:00,60.3,25.3,29.03,SSW,199,0.0,0.0,26,0.00,,---,0.00,VWS V14.01,2013-10-11 00:02:00,
2013-10-10 20:07:00,60.3,26.2,29.03,SSW,199,0.0,0.0,27,0.00,,---,0.00,VWS V14.01,2013-10-11 00:07:00,
2013-10-10 20:12:00,60.1,26.0,29.03,SSW,199,0.0,0.0,27,0.00,,---,0.00,VWS V14.01,2013-10-11 00:12:00,
2013-10-10 20:17:00,60.1,26.0,29.03,SSW,199,0.0,0.0,27,0.00,,---,0.00,VWS V14.01,2013-10-11 00:17:00,
2013-10-10 20:22:00,60.1,26.0,29.03,SSW,199,0.0,0.0,27,0.00,,---,0.00,VWS V14.01,2013-10-11 00:22:00,
2013-10-10 20:27:00,60.1,26.0,29.03,SSW,199,0.0,0.0,27,0.00,,---,0.00,VWS V14.01,2013-10-11 00:27:00,
2013-10-10 20:32:00,59.9,25.9,29.03,SSW,199,0.0,0.0,27,0.00,,---,0.00,VWS V14.01,2013-10-11 00:32:00,
2013-10-10 20:37:00,59.7,24.8,29.03,SSW,199,0.0,0.0,26,0.00,,---,0.00,VWS V14.01,2013-10-11 00:37:00,
2013-10-10 20:42:00,59.7,25.7,29.03,SSW,199,0.0,0.0,27,0.00,,---,0.00,VWS V14.01,2013-10-11 00:42:00,
2013-10-10 20:47:00,59.5,25.5,29.03,SSW,199,0.0,0.0,27,0.00,,---,0.00,VWS V14.01,2013-10-11 00:47:00,
2013-10-10 20:52:00,59.4,25.4,29.03,SSW,199,0.0,0.0,27,0.00,,---,0.00,VWS V14.01,2013-10-11 00:52:00,
2013-10-10 20:57:00,59.4,25.4,29.03,SSW,199,0.0,0.0,27,0.00,,---,0.00,VWS V14.01,2013-10-11 00:57:00,
2013-10-10 21:02:00,59.4,25.4,29.03,SSW,199,0.0,0.0,27,0.00,,---,0.00,VWS V14.01,2013-10-11 01:02:00,
2013-10-10 21:07:00,59.2,26.1,29.03,SSW,199,0.0,0.0,28,0.00,,---,0.00,VWS V14.01,2013-10-11 01:07:00,
2013-10-10 21:12:00,59.2,26.1,29.03,SSW,199,0.0,0.0,28,0.00,,---,0.00,VWS V14.01,2013-10-11 01:12:00,
2013-10-10 21:17:00,59.2,26.1,29.03,SSW,199,0.0,0.0,28,0.00,,---,0.00,VWS V14.01,2013-10-11 01:17:00,
2013-10-10 21:22:00,59.2,26.1,29.03,SSW,199,0.0,0.0,28,0.00,,---,0.00,VWS V14.01,2013-10-11 01:22:00,
2013-10-10 21:27:00,59.2,27.0,29.03,SSW,199,0.0,0.0,29,0.00,,---,0.00,VWS V14.01,2013-10-11 01:27:00,
2013-10-10 21:32:00,59.2,27.0,29.03,SSW,199,0.0,0.0,29,0.00,,---,0.00,VWS V14.01,2013-10-11 01:32:00,
2013-10-10 21:37:00,59.2,27.0,29.03,NE,36,2.2,2.2,29,0.00,,---,0.00,VWS V14.01,2013-10-11 01:37:00,
2013-10-10 21:42:00,59.4,27.1,29.03,NE,36,0.0,0.0,29,0.00,,---,0.00,VWS V14.01,2013-10-11 01:42:00,
2013-10-10 21:47:00,59.4,27.9,29.03,NE,36,0.0,0.0,30,0.00,,---,0.00,VWS V14.01,2013-10-11 01:47:00,
2013-10-10 21:52:00,59.4,27.9,29.03,NE,36,0.0,0.0,30,0.00,,---,0.00,VWS V14.01,2013-10-11 01:52:00,
2013-10-10 21:57:00,59.4,27.1,29.03,WSW,241,3.1,3.1,29,0.00,,---,0.00,VWS V14.01,2013-10-11 01:57:00,
2013-10-10 22:02:00,59.4,27.1,29.00,SW,234,0.0,2.2,29,0.00,,---,0.00,VWS V14.01,2013-10-11 02:02:00,
2013-10-10 22:07:00,59.4,27.9,29.00,SW,234,0.0,0.0,30,0.00,,---,0.00,VWS V14.01,2013-10-11 02:07:00,
2013-10-10 22:22:00,59.4,27.9,29.00,SW,234,0.0,0.0,30,0.00,,---,0.00,VWS V14.01,2013-10-11 02:22:00,
2013-10-10 22:37:00,59.4,27.9,29.00,SW,234,0.0,0.0,30,0.00,,---,0.00,VWS V14.01,2013-10-11 02:37:00,
2013-10-10 22:45:00,59.2,27.8,29.00,SW,234,0.0,0.0,30,0.00,,---,0.00,VWS V14.01,2013-10-11 02:45:00,
2013-10-10 22:50:00,59.2,27.8,29.00,SW,234,0.0,0.0,30,0.00,,---,0.00,VWS V14.01,2013-10-11 02:50:00,
2013-10-10 22:55:00,59.2,27.8,29.00,SW,234,0.0,0.0,30,0.00,,---,0.00,VWS V14.01,2013-10-11 02:55:00,
2013-10-10 23:00:00,59.0,27.6,29.00,SW,234,0.0,0.0,30,0.00,,---,0.00,VWS V14.01,2013-10-11 03:00:00,
2013-10-10 23:05:00,59.0,28.4,29.00,SSE,159,0.0,2.2,31,0.00,,---,0.00,VWS V14.01,2013-10-11 03:05:00,
2013-10-10 23:10:00,59.0,28.4,29.00,SSE,162,0.0,0.0,31,0.00,,---,0.00,VWS V14.01,2013-10-11 03:10:00,
2013-10-10 23:15:00,59.2,28.6,29.00,SSW,204,0.0,0.0,31,0.00,,---,0.00,VWS V14.01,2013-10-11 03:15:00,
2013-10-10 23:21:00,59.2,28.6,29.00,SSW,202,0.0,0.0,31,0.00,,---,0.00,VWS V14.01,2013-10-11 03:21:00,
2013-10-10 23:26:00,59.2,28.6,29.00,ENE,60,5.4,5.4,31,0.00,,---,0.00,VWS V14.01,2013-10-11 03:26:00,
2013-10-10 23:31:00,59.4,27.9,29.00,West,265,2.2,2.2,30,0.00,,---,0.00,VWS V14.01,2013-10-11 03:31:00,
2013-10-10 23:36:00,59.4,27.9,29.00,NE,48,0.0,0.0,30,0.00,,---,0.00,VWS V14.01,2013-10-11 03:36:00,
2013-10-10 23:41:00,59.4,27.9,29.00,NE,51,0.0,0.0,30,0.00,,---,0.00,VWS V14.01,2013-10-11 03:41:00,
2013-10-10 23:46:00,59.4,27.9,29.00,NE,51,0.0,0.0,30,0.00,,---,0.00,VWS V14.01,2013-10-11 03:46:00,
2013-10-10 23:51:00,59.4,27.9,29.00,NE,51,0.0,0.0,30,0.00,,---,0.00,VWS V14.01,2013-10-11 03:51:00,
2013-10-10 23:56:00,59.2,27.8,29.00,NE,51,0.0,0.0,30,0.00,,---,0.00,VWS V14.01,2013-10-11 03:56:00,